Retour au catalogue

QIANFAN-190

ActifCommunicationsPO
NORAD 69408·PAYLOAD·🇨🇳 China

Lancé Jun 5, 2026 depuis Wenchang Space Launch Site

Loading…

Prochains Passages (prochaines 24 heures)

TLE

FraisSource: Space-Track

Époque: Sep 14, 2026, 13:06 UTC

1 69408U 26125H   26257.54626715  .00000025  00000-0  19903-4 0  9994
2 69408  88.9868 270.9150 0001871  96.1004 264.0361 13.51033258 14016

Suivez QIANFAN-190 en temps réel avec AllMySat

Download on the App Store